Weather in Sokolino

Russia / Smolensk Oblast     55°50′59″N   34°25′22″E
temp.,
°C
wind,
m/s
gust,
m/s
humid.,
%
clouds,
%
prec.,
mm/h
press.,
hPa
HPBL,
m
21 april, wed
wed2100:00+3ene2593100 0.2 1012540
03:00+3ne3597100 0.3 1010574
06:00+2nnw3499100 0.1 1006274
09:00+2wnw3599100 0.4 1005378
12:00+3w4793100 0.1 1005719
15:00+5wsw4775100 0.2 1007846
18:00+7w256666 0.0 10071105
21:00+5s478976 0.1 1008151
22 april, thu
thu2200:00+4s4109185 0.1 1009228
03:00+2s4109495 0.1 1010219
06:00+4s41189100 0.0 1010309
09:00+8ssw698173 0.1 1011451
12:00+13sw686022 0.8 10111071
15:00+14ssw565219 1.1 10111627
18:00+12ssw587080 1.9 1010728
21:00+9s512845 2.4 1011272
23 april, fri
fri2300:00+7s4109064 0.0 1011189
03:00+7s7159128 0.1 1010483
06:00+7sw4693100 0.3 1010422
09:00+8s4992100 0.8 1009900
12:00+4wsw4895100 1.7 1013473
15:00+8sw5762100 1.8 10121455
18:00+8ssw4666100 0.1 1012847
21:00+6sw2377100 0.6 101259
24 april, sat
sat2400:00+5wsw2479100 0.1 1011106
03:00+4w3683100 0.1 1010186
06:00+2w378895 0.0 1009252
09:00+5w46707 0.0 1009819
12:00+7wsw565582 0.9 10091466
15:00+7w775093 2.2 10081783
18:00+6wsw675482 0.2 10081485
21:00+2wsw49795 0.3 1009275
25 april, sun
sun2500:00+1wsw410895 0.0 1009340
03:000sw49935 0.0 1009324
06:000wsw5109072 0.0 1009582
09:00+2wsw6875100 0.0 1009912
12:00+3wsw6773100 0.1 10101018
15:00+4sw676499 0.3 10101383
18:00+5wsw576990 0.5 10101127
21:00+1sw48858 0.8 1010181